| time (UTC) | temp F | wind direction | speed knots | gust knots | rain 1hr in | rain 24hr in | rain mn in | humidity % | barometer mb |
| 20260503190224 | 54 | 107 | 2.6 | 7.0 | 0.00 | 0.01 | 0.01 | 75 | 1014.1 |
| 20260503180245 | 53 | 106 | 5.2 | 5.2 | 0.00 | 0.01 | 0.01 | 82 | 1014.1 |
| 20260503173243 | 51 | 264 | 5.2 | 7.0 | 0.00 | 0.01 | 0.01 | 88 | 1014.0 |
| 20260503170236 | 50 | 112 | 0.0 | 7.0 | 0.00 | 0.01 | 0.01 | 90 | 1014.0 |
| 20260503150219 | 49 | 138 | 2.6 | 3.5 | 0.00 | 0.00 | 0.00 | 93 | 1013.3 |
| 20260503140241 | 48 | 180 | 0.0 | 0.0 | 0.00 | 0.00 | 0.00 | 92 | 1012.6 |
| 20260503130232 | 47 | 334 | 0.0 | 5.2 | 0.00 | 0.00 | 0.00 | 93 | 1012.1 |
| 20260503110244 | 48 | 153 | 0.0 | 0.0 | 0.00 | 0.00 | 0.00 | 92 | 1012.6 |
| 20260503100235 | 49 | 153 | 0.0 | 0.0 | 0.00 | 0.00 | 0.00 | 92 | 1012.7 |
| 20260503090226 | 49 | 275 | 0.0 | 0.0 | 0.00 | 0.00 | 0.00 | 90 | 1013.0 |
| 20260503080218 | 50 | 333 | 0.0 | 0.0 | 0.00 | 0.00 | 0.00 | 89 | 1013.3 |
| 20260503070240 | 50 | 333 | 0.0 | 2.6 | 0.00 | 0.00 | 0.00 | 89 | 1013.3 |
| 20260503053227 | 51 | 343 | 0.0 | 2.6 | 0.00 | 0.00 | 0.00 | 87 | 1013.3 |
| 20260503050222 | 51 | 342 | 0.0 | 0.0 | 0.00 | 0.00 | 0.00 | 86 | 1013.5 |
| 20260503040243 | 52 | 308 | 1.7 | 4.3 | 0.00 | 0.00 | 0.00 | 85 | 1012.9 |
| 20260503033239 | 53 | 334 | 2.6 | 4.3 | 0.00 | 0.00 | 0.00 | 85 | 1012.6 |
| 20260503030235 | 54 | 317 | 1.7 | 4.3 | 0.00 | 0.00 | 0.00 | 83 | 1012.6 |
| 20260503023230 | 55 | 332 | 1.7 | 3.5 | 0.00 | 0.00 | 0.00 | 83 | 1012.4 |
| 20260503013221 | 58 | 341 | 1.7 | 3.5 | 0.00 | 0.00 | 0.00 | 78 | 1012.6 |
| 20260503010247 | 60 | 338 | 1.7 | 3.5 | 0.00 | 0.00 | 0.00 | 76 | 1013.0 |
| 20260503000240 | 63 | 24 | 1.7 | 3.5 | 0.00 | 0.00 | 0.00 | 71 | 1013.2 |
| 20260502233234 | 64 | 331 | 0.0 | 3.5 | 0.00 | 0.00 | 0.00 | 70 | 1013.4 |
| 20260502230229 | 65 | 98 | 3.5 | 5.2 | 0.00 | 0.00 | 0.00 | 68 | 1013.8 |
| 20260502223225 | 65 | 121 | 1.7 | 6.1 | 0.00 | 0.00 | 0.00 | 67 | 1014.2 |
| 20260502213247 | 64 | 115 | 2.6 | 7.0 | 0.00 | 0.00 | 0.00 | 73 | 1014.9 |
| 20260502210242 | 62 | 122 | 2.6 | 7.8 | 0.00 | 0.00 | 0.00 | 76 | 1015.2 |
| 20260502203238 | 60 | 114 | 6.1 | 9.6 | 0.00 | 0.00 | 0.00 | 78 | 1015.2 |
| 20260502200236 | 57 | 160 | 1.7 | 7.8 | 0.00 | 0.00 | 0.00 | 80 | 1015.2 |